BEIDOU-3 M24 (C46)

Last updated on Thu Oct 30 2025 00:03:27 GMT+0000 (Coordinated Universal Time)

1 44542U 19061A 25301.81487028 .00000019 00000+0 00000+0 0 9993 2 44542 54.4011 190.5328 0009239 16.2706 343.8384 1.86229430 41484
UTC large
Height (km)
Speed (km/s)
/
Latitude / Longitude
Inclination (degrees)
Orbital Period (minutes)
Azimuth
Elevation
Range (km)
Doppler Factor

Next 0 passes for location: London (51.5072 / 0.1276)

Sorry there are no passes over London.